Change the Weather History Date:

Tuesday, August 20, 2013

  Actual Average (KCSV) Record (KCSV)
Temperature  
Mean Temperature 74 °F 74 °F  
Max Temperature 84 °F 84 °F 95 °F (1983)
Min Temperature 64 °F 64 °F 53 °F (1957)
Degree Days  
Heating Degree Days 0    
Month to date heating degree days  
Since 1 June heating degree days  
Since 1 July heating degree days  
Cooling Degree Days 9    
Month to date cooling degree days  
Year to date cooling degree days  
Since 1 June cooling degree days  
Growing Degree Days 24 (Base 50)    
Moisture  
Dew Point 68 °F    
Average Humidity 89    
Maximum Humidity 100    
Minimum Humidity 62    
Precipitation  
Precipitation 0.00 in 0.13 in 2.10 in (1995)
Month to date precipitation 2.74  
Year to date precipitation 36.87  
Sea Level Pressure  
Sea Level Pressure 30.14 in    
Wind  
Wind Speed 2 mph (SSE)    
Max Wind Speed 13 mph    
Max Gust Speed -    
Visibility 9 miles    
Events      
T = Trace of Precipitation, MM = Missing Value Source: NWS Daily Summary

Daily Weather History Graph

Daily Weather History Graph

Search for Another Location

Airport or City:

Trip Planner

Search our weather history database for the weather conditions in past years. The results will help you decide how hot, cold, wet, or windy it might be!

Date:

Astronomy

Aug. 20, 2013 Rise Set
Actual Time 6:04 AM CDT 7:25 PM CDT
Civil Twilight 5:37 AM CDT 7:52 PM CDT
Nautical Twilight 5:05 AM CDT 8:24 PM CDT
Astronomical Twilight 4:31 AM CDT 8:57 PM CDT
Moon 6:58 PM CDT (8/20) 5:32 AM CDT (8/20)
Length of Visible Light 14h 14m
Length of Day
13h 20m
Full, 100% of the Moon is Illuminated
Aug 20
Full
Aug 20
Full
Aug 28
Last Quarter
Sep 5
New
Sep 12
First Quarter

Hourly Weather History & Observations

Time (CDT) Temp. Heat Index Dew Point Humidity Pressure Visibility Wind Dir Wind Speed Gust Speed Precip Events Conditions
12:35 AM 66.2 °F - 64.4 °F 94% 30.12 in 10.0 mi Calm Calm - N/A   Partly Cloudy
12:55 AM 66.2 °F - 66.2 °F 100% 30.11 in 10.0 mi Calm Calm - N/A   Mostly Cloudy
1:15 AM 66.2 °F - 64.4 °F 94% 30.11 in 10.0 mi Calm Calm - N/A   Mostly Cloudy
1:35 AM 66.2 °F - 66.2 °F 100% 30.11 in 10.0 mi Calm Calm - N/A   Mostly Cloudy
1:55 AM 66.2 °F - 66.2 °F 100% 30.11 in 10.0 mi Calm Calm - N/A   Mostly Cloudy
2:15 AM 66.2 °F - 66.2 °F 100% 30.11 in 10.0 mi Calm Calm - N/A   Partly Cloudy
2:35 AM 66.2 °F - 64.4 °F 94% 30.11 in 10.0 mi Calm Calm - N/A   Partly Cloudy
2:55 AM 66.2 °F - 64.4 °F 94% 30.11 in 7.0 mi Calm Calm - N/A   Partly Cloudy
3:15 AM 66.2 °F - 64.4 °F 94% 30.11 in 10.0 mi Calm Calm - N/A   Partly Cloudy
3:35 AM 66.2 °F - 64.4 °F 94% 30.10 in 10.0 mi SE 3.5 mph - N/A   Partly Cloudy
3:55 AM 66.2 °F - 66.2 °F 100% 30.10 in 10.0 mi SE 3.5 mph - N/A   Clear
4:15 AM 66.2 °F - 64.4 °F 94% 30.10 in 10.0 mi Calm Calm - N/A   Clear
4:35 AM 66.2 °F - 64.4 °F 94% 30.11 in 10.0 mi Calm Calm - N/A   Clear
4:55 AM 64.4 °F - 62.6 °F 94% 30.11 in 10.0 mi Calm Calm - N/A   Partly Cloudy
5:15 AM 64.4 °F - 62.6 °F 94% 30.12 in 10.0 mi Calm Calm - N/A   Partly Cloudy
5:35 AM 64.4 °F - 64.4 °F 100% 30.12 in 10.0 mi Calm Calm - N/A   Unknown
5:55 AM 64.4 °F - 64.4 °F 100% 30.13 in 10.0 mi Calm Calm - N/A   Scattered Clouds
6:15 AM 64.4 °F - 64.4 °F 100% 30.14 in 10.0 mi Calm Calm - N/A   Partly Cloudy
6:35 AM 64.4 °F - 64.4 °F 100% 30.14 in 10.0 mi Calm Calm - N/A   Clear
6:55 AM 66.2 °F - 66.2 °F 100% 30.14 in 10.0 mi SE 3.5 mph - N/A   Clear
7:15 AM 69.8 °F - 66.2 °F 88% 30.14 in 10.0 mi SE 3.5 mph - N/A   Clear
7:35 AM 73.4 °F - 68.0 °F 83% 30.14 in 10.0 mi SSE 3.5 mph - N/A   Scattered Clouds
7:55 AM 73.4 °F - 68.0 °F 83% 30.15 in 10.0 mi South 5.8 mph - N/A   Unknown
8:15 AM 73.4 °F - 68.0 °F 83% 30.16 in 10.0 mi South 4.6 mph - N/A   Mostly Cloudy
8:35 AM 75.2 °F - 68.0 °F 78% 30.15 in 10.0 mi South 5.8 mph - N/A   Partly Cloudy
8:55 AM 75.2 °F - 69.8 °F 83% 30.16 in 10.0 mi SSE 8.1 mph - N/A   Partly Cloudy
9:15 AM 77.0 °F - 69.8 °F 78% 30.16 in 10.0 mi SSE 8.1 mph - N/A   Partly Cloudy
9:35 AM 78.8 °F - 69.8 °F 74% 30.17 in 10.0 mi South 4.6 mph - N/A   Scattered Clouds
9:55 AM 78.8 °F - 69.8 °F 74% 30.17 in 10.0 mi SW 6.9 mph - N/A   Mostly Cloudy
10:15 AM 78.8 °F - 69.8 °F 74% 30.17 in 10.0 mi SSW 5.8 mph - N/A   Mostly Cloudy
10:35 AM 80.6 °F 83.9 °F 69.8 °F 70% 30.17 in 10.0 mi Variable 6.9 mph - N/A   Overcast
10:55 AM 78.8 °F - 69.8 °F 74% 30.17 in 10.0 mi Variable 3.5 mph - N/A   Overcast
11:15 AM 80.6 °F 83.9 °F 69.8 °F 70% 30.17 in 10.0 mi WSW 4.6 mph - N/A   Mostly Cloudy
11:35 AM 82.4 °F 86.3 °F 69.8 °F 66% 30.16 in 10.0 mi South 5.8 mph - N/A   Scattered Clouds
11:55 AM 84.2 °F 89.6 °F 71.6 °F 66% 30.16 in 10.0 mi SW 5.8 mph - N/A   Mostly Cloudy
12:15 PM 82.4 °F 86.3 °F 69.8 °F 66% 30.15 in 10.0 mi SW 6.9 mph - N/A   Mostly Cloudy
12:35 PM 84.2 °F 88.4 °F 69.8 °F 62% 30.15 in 10.0 mi SSW 5.8 mph - N/A   Partly Cloudy
12:55 PM 84.2 °F 88.4 °F 69.8 °F 62% 30.15 in 10.0 mi South 4.6 mph - N/A   Clear
1:15 PM 80.6 °F 84.6 °F 71.6 °F 74% 30.15 in 10.0 mi North 9.2 mph - N/A   Mostly Cloudy
1:35 PM 77.0 °F - 71.6 °F 83% 30.15 in 2.0 mi North 9.2 mph - N/A   Overcast
1:55 PM 77.0 °F - 71.6 °F 83% 30.14 in 10.0 mi ENE 6.9 mph - N/A   Mostly Cloudy
2:15 PM 80.6 °F 85.4 °F 73.4 °F 79% 30.12 in 10.0 mi ENE 8.1 mph - N/A   Partly Cloudy
2:35 PM 80.6 °F 84.6 °F 71.6 °F 74% 30.12 in 10.0 mi ENE 6.9 mph - N/A   Scattered Clouds
2:55 PM 82.4 °F 87.2 °F 71.6 °F 70% 30.11 in 10.0 mi NE 5.8 mph - N/A   Partly Cloudy
3:15 PM 75.2 °F - 66.2 °F 73% 30.13 in 10.0 mi SSE 12.7 mph - N/A   Mostly Cloudy
3:35 PM 71.6 °F - 66.2 °F 83% 30.12 in 7.0 mi ESE 9.2 mph - N/A   Mostly Cloudy
3:55 PM 71.6 °F - 68.0 °F 88% 30.13 in 2.0 mi SSE 4.6 mph - N/A   Overcast
4:15 PM 69.8 °F - 68.0 °F 94% 30.14 in 8.0 mi NNW 5.8 mph - N/A   Overcast
4:35 PM 69.8 °F - 68.0 °F 94% 30.14 in 8.0 mi North 5.8 mph - N/A   Overcast
4:55 PM 71.6 °F - 69.8 °F 94% 30.14 in 10.0 mi Calm Calm - N/A   Mostly Cloudy
5:15 PM 71.6 °F - 69.8 °F 94% 30.12 in 10.0 mi Calm Calm - N/A   Mostly Cloudy
5:35 PM 71.6 °F - 69.8 °F 94% 30.12 in 10.0 mi Variable 3.5 mph - N/A   Mostly Cloudy
5:55 PM 71.6 °F - 69.8 °F 94% 30.13 in 10.0 mi Calm Calm - N/A   Scattered Clouds
6:15 PM 71.6 °F - 69.8 °F 94% 30.13 in 10.0 mi WSW 3.5 mph - N/A   Mostly Cloudy
6:35 PM 71.6 °F - 69.8 °F 94% 30.14 in 10.0 mi WSW 5.8 mph - N/A   Mostly Cloudy
6:55 PM 71.6 °F - 69.8 °F 94% 30.12 in 10.0 mi Calm Calm - N/A   Partly Cloudy
7:15 PM 71.6 °F - 69.8 °F 94% 30.12 in 10.0 mi East 4.6 mph - N/A   Clear
7:35 PM 69.8 °F - 69.8 °F 100% 30.13 in 10.0 mi Calm Calm - N/A   Clear
7:55 PM 69.8 °F - 69.8 °F 100% 30.14 in 10.0 mi ESE 4.6 mph - N/A   Partly Cloudy
8:15 PM 69.8 °F - 68.0 °F 94% 30.14 in 10.0 mi ESE 4.6 mph - N/A   Clear
8:35 PM 69.8 °F - 69.8 °F 100% 30.14 in 10.0 mi East 3.5 mph - N/A   Clear
8:55 PM 69.8 °F - 68.0 °F 94% 30.14 in 10.0 mi Calm Calm - N/A   Clear
9:15 PM 69.8 °F - 68.0 °F 94% 30.14 in 10.0 mi SE 4.6 mph - N/A   Clear
9:35 PM 68.0 °F - 68.0 °F 100% 30.15 in 10.0 mi SSE 3.5 mph - N/A   Clear
9:55 PM 68.0 °F - 66.2 °F 94% 30.16 in 10.0 mi Calm Calm - N/A   Clear
10:15 PM 66.2 °F - 66.2 °F 100% 30.16 in 2.5 mi Calm Calm - N/A   Clear
10:35 PM 66.2 °F - 66.2 °F 100% 30.16 in 0.5 mi Calm Calm - N/A   Unknown
10:55 PM 66.2 °F - 66.2 °F 100% 30.17 in 4.0 mi Calm Calm - N/A   Clear
11:15 PM 66.2 °F - 66.2 °F 100% 30.17 in 0.5 mi Calm Calm - N/A   Unknown
11:35 PM 66.2 °F - 66.2 °F 100% 30.17 in 0.8 mi Calm Calm - N/A   Unknown
11:55 PM 66.2 °F - 64.4 °F 94% 30.17 in 0.8 mi Calm Calm - N/A   Mostly Cloudy